South Lake Tahoe, CA

2:46 PM PST on December 10, 2016 (GMT -0800)
Lake Tahoe

Weather History for KTVL - October, 2013

Change the Weather History Date:

Tuesday, October 8, 2013

  Actual Average Record
Temperature  
Mean Temperature 47 °F 48 °F  
Max Temperature 64 °F 66 °F 77 °F (1996)
Min Temperature 29 °F 30 °F 21 °F (1990)
Degree Days  
Heating Degree Days 18 17  
Month to date heating degree days 151 130  
Since 1 July heating degree days 579 756  
Cooling Degree Days 0 0  
Month to date cooling degree days 0 0  
Year to date cooling degree days 104 31  
Moisture  
Dew Point 18 °F    
Average Humidity 31    
Maximum Humidity 49    
Minimum Humidity 13    
Precipitation  
Precipitation 0.00 in - 1.00 in (1956)
Month to date precipitation 0.00  
Year to date precipitation 7.15  
Sea Level Pressure  
Sea Level Pressure 29.84 in    
Wind  
Wind Speed 2 mph (SSW)    
Max Wind Speed 16 mph    
Max Gust Speed 20 mph    
Visibility 10 miles    
Events      
T = Trace of Precipitation, MM = Missing Value Source: NWS Daily Summary

Daily Weather History Graph

Daily Weather History Graph

Search for Another Location

Airport or City:

Trip Planner

Search our weather history database for the weather conditions in past years. The results will help you decide how hot, cold, wet, or windy it might be!

Date:

Astronomy

Oct. 08, 2013 Rise Set
Actual Time 7:02 AM PDT 6:31 PM PDT
Civil Twilight 6:36 AM PDT 6:57 PM PDT
Nautical Twilight 6:05 AM PDT 7:28 PM PDT
Astronomical Twilight 5:34 AM PDT 7:59 PM PDT
Moon 11:00 AM PDT (10/8) 9:14 PM PDT (10/8)
Length of Visible Light 12h 21m
Length of Day
11h 28m
Waxing Crescent, 17% of the Moon is Illuminated
Oct 8
Waxing Crescent
Oct 11
First Quarter
Oct 18
Full
Oct 26
Last Quarter
Nov 3
New

Hourly Weather History & Observations

Time (PDT) Temp. Windchill Dew Point Humidity Pressure Visibility Wind Dir Wind Speed Gust Speed Precip Events Conditions
12:53 AM 51.1 °F - 14.0 °F 23% 29.89 in 10.0 mi Calm Calm - N/A   Clear
1:53 AM 45.0 °F - 14.0 °F 29% 29.92 in 10.0 mi Calm Calm - N/A   Clear
2:53 AM 37.9 °F - 15.1 °F 39% 29.92 in 10.0 mi Calm Calm - N/A   Clear
3:53 AM 36.0 °F - 14.0 °F 41% 29.92 in 10.0 mi Calm Calm - N/A   Clear
4:53 AM 34.0 °F - 12.9 °F 42% 29.92 in 10.0 mi Calm Calm - N/A   Clear
5:53 AM 32.0 °F 28.7 °F 14.0 °F 48% 29.94 in 10.0 mi SSW 3.5 mph - N/A   Clear
6:53 AM 30.0 °F - 12.9 °F 49% 29.96 in 10.0 mi Calm Calm - N/A   Clear
7:53 AM 30.9 °F - 14.0 °F 50% 29.97 in 10.0 mi Calm Calm - N/A   Clear
8:53 AM 42.1 °F - 16.0 °F 35% 29.93 in 10.0 mi Calm Calm - N/A   Clear
9:53 AM 54.0 °F - 15.1 °F 22% 29.88 in 10.0 mi Calm Calm - N/A   Clear
10:53 AM 57.9 °F - 16.0 °F 19% 29.86 in 10.0 mi Variable 6.9 mph - N/A   Clear
11:53 AM 61.0 °F - 17.1 °F 18% 29.83 in 10.0 mi Variable 5.8 mph - N/A   Clear
12:53 PM 62.1 °F - 10.0 °F 13% 29.79 in 10.0 mi Calm Calm - N/A   Clear
1:53 PM 62.1 °F - 19.9 °F 20% 29.78 in 10.0 mi NNE 5.8 mph - N/A   Clear
2:53 PM 59.0 °F - 19.0 °F 21% 29.80 in 10.0 mi Variable 6.9 mph - N/A   Clear
3:53 PM 55.9 °F - 21.9 °F 27% 29.81 in 10.0 mi SSW 10.4 mph 19.6 mph N/A   Clear
4:53 PM 55.9 °F - 21.0 °F 26% 29.81 in 10.0 mi SSW 8.1 mph 17.3 mph N/A   Clear
5:53 PM 54.0 °F - 19.9 °F 26% 29.81 in 10.0 mi Variable 4.6 mph - N/A   Partly Cloudy
6:53 PM 52.0 °F - 19.9 °F 28% 29.79 in 10.0 mi SSW 5.8 mph - N/A   Clear
7:53 PM 51.1 °F - 21.9 °F 32% 29.78 in 10.0 mi South 10.4 mph - N/A   Partly Cloudy
8:53 PM 48.9 °F - 24.1 °F 38% 29.75 in 10.0 mi South 5.8 mph - N/A   Clear
9:53 PM 48.0 °F - 24.1 °F 39% 29.70 in 10.0 mi SSW 5.8 mph - N/A   Mostly Cloudy
10:53 PM 46.9 °F - 25.0 °F 42% 29.68 in 10.0 mi South 5.8 mph - N/A   Scattered Clouds
11:53 PM 46.0 °F - 24.1 °F 42% 29.64 in 10.0 mi Calm Calm - N/A   Overcast